This is the latest recevied weather packets stored in our database for station/object KE7JVX-3. If no packets are shown the sender has not sent any weather packets the latest 1 day(s).
| Time | Temp. | Humidity | Pressure | Rain* | Wind** | Luminosity | Snow |
|---|---|---|---|---|---|---|---|
| 1778007566 | 2.22° C | 79% | 1007.3 hPa | 0 mm | 6.26 m/s, 251° | - | - |
| 1778006966 | 2.78° C | 79% | 1007.3 hPa | 0 mm | 8.94 m/s, 254° | - | - |
| 1778006366 | 2.22° C | 79% | 1007.3 hPa | 0 mm | 8.05 m/s, 259° | - | - |
| 1778005766 | 2.22° C | 79% | 1007.3 hPa | 0 mm | 8.49 m/s, 261° | - | - |
| 1778005167 | 2.78° C | 79% | 1007.4 hPa | 0 mm | 8.49 m/s, 250° | - | - |
| 1778004567 | 2.78° C | 79% | 1007.5 hPa | 0 mm | 8.94 m/s, 254° | - | - |
| 1778003967 | 2.22° C | 79% | 1007.4 hPa | 0 mm | 8.94 m/s, 251° | - | - |
| 1778003366 | 2.78° C | 79% | 1007.5 hPa | 0 mm | 8.05 m/s, 259° | - | - |
| 1778002767 | 2.22° C | 79% | 1007.4 hPa | 0 mm | 6.71 m/s, 248° | - | - |
| 1778002168 | 2.78° C | 79% | 1007.6 hPa | 0 mm | 8.05 m/s, 260° | - | - |
| 1778001569 | 2.22° C | 79% | 1007.5 hPa | 0 mm | 7.15 m/s, 249° | - | - |
| 1778000967 | 2.22° C | 79% | 1007.4 hPa | 0 mm | 7.6 m/s, 238° | - | - |
| 1778000366 | 2.22° C | 79% | 1007.5 hPa | 0 mm | 8.94 m/s, 255° | - | - |
| 1777999766 | 2.22° C | 79% | 1007.7 hPa | 0 mm | 5.36 m/s, 259° | - | - |
| 1777999166 | 2.22° C | 79% | 1007.4 hPa | 0 mm | 9.39 m/s, 263° | - | - |
| 1777998566 | 2.22° C | 79% | 1007.3 hPa | 0 mm | 8.05 m/s, 251° | - | - |
| 1777997966 | 2.22° C | 79% | 1007.1 hPa | 0 mm | 8.94 m/s, 250° | - | - |
| 1777997366 | 2.22° C | 79% | 1007 hPa | 0.51 mm | 8.94 m/s, 262° | - | - |
| 1777996766 | 2.22° C | 79% | 1007 hPa | 1.02 mm | 8.94 m/s, 249° | - | - |
| 1777996166 | 2.22° C | 79% | 1006.9 hPa | 2.03 mm | 8.05 m/s, 249° | - | - |
| 1777995566 | 2.22° C | 79% | 1007 hPa | 3.56 mm | 9.39 m/s, 246° | - | - |
| 1777994967 | 2.78° C | 79% | 1006.9 hPa | 4.83 mm | 8.05 m/s, 249° | - | - |
| 1777994576 | 2.78° C | 79% | 1007.1 hPa | 6.1 mm | 9.83 m/s, 245° | - | - |
| 1777994366 | 2.78° C | 79% | 1007.1 hPa | 6.1 mm | 9.83 m/s, 245° | - | - |
| 1777993767 | 2.78° C | 79% | 1007 hPa | 5.84 mm | 7.6 m/s, 243° | - | - |
* Rain latest hour (hover to see other rain measurements)
** Current wind speed in m/s (hover to see current wind gust speed)